Regional Weather Roundup
Issued by NWS Memphis, TN

Home | Current Version | Previous Version | Text Only | Print | Product List | Glossary On
Versions: 1 2 3 4 5 6 7 8 9 10 11 12 13 14 15 16 17 18 19 20 21 22 23 24 25 26 27 28 29 30 31 32 33 34 35 36 37 38 39 40 41 42 43 44 45 46 47 48 49 50
000
ASUS44 KMEG 281110
RWRMEG
MEMPHIS CWA HOURLY WEATHER ROUNDUP
NATIONAL WEATHER SERVICE MEMPHIS TN
600 AM CDT WED JUN 28 2017

...WEST TENNESSEE...

CITY           SKY/WX    TMP DP  RH WIND       PRES   REMARKS
MEMPHIS INTL   PTCLDY    71  63  75 S7        30.05R
NWS MEMPHIS      N/A     66 N/A N/A MISG        N/A
JACKSON        CLEAR     62  61  96 CALM      30.08R
COVINGTON      CLEAR     64  63  94 CALM      30.06R
SOMERVILLE     CLEAR     66  63  88 CALM      30.06R
BOLIVAR        CLEAR     61  59  94 CALM      30.07R
LEXINGTON      CLEAR     57  57 100 N5        30.09R
SELMER         CLEAR     61  59  94 CALM      30.07R
SAVANNAH       CLEAR     59  59 100 CALM      30.07R
UNION CITY     CLEAR     61  59  94 CALM      30.07R
HUNTINGDON     CLEAR     61  59  94 CALM      30.08R


...EASTERN ARKANSAS...

CITY           SKY/WX    TMP DP  RH WIND       PRES   REMARKS
JONESBORO      CLEAR     65  64  97 CALM      30.04R
WEST MEMPHIS   CLEAR     67  64  90 S6        30.04R
BATESVILLE     PTCLDY    64  63  94 SE5       30.03F
WALNUT RIDGE   CLEAR     66  63  88 SE7       30.03F
BLYTHEVILLE    CLEAR     70  63  78 S7        30.06R
SEARCY         MOCLDY    66  66 100 CALM      30.05R
STUTTGART      PTCLDY    70  55  60 SE6       30.03R
PINE BLUFF     CLEAR     67  66  97 CALM      30.02R
MONTICELLO     CLEAR     69  65  86 CALM      30.00S


...NORTH MISSISSIPPI...

CITY           SKY/WX    TMP DP  RH WIND       PRES   REMARKS
TUPELO         PTCLDY    67  61  81 CALM      30.05F
OXFORD         PTCLDY    64  61  88 SE5       30.07R
BATESVILLE     CLEAR     67  62  84 CALM      30.04R
TUNICA           N/A     66  63  88 CALM      30.05R
CLARKSDALE       N/A     68  68 100 CALM      30.04R
CORINTH          N/A    N/A N/A N/A MISG        N/A
GREENWOOD      CLEAR     68  64  87 E3        30.02S
COLUMBUS       CLEAR     64  63  94 CALM      30.04F
STARKVILLE     CLEAR     63  61  94 CALM      30.05F
GOLDEN TRIANGL CLEAR     66  57  72 E7        30.02S


...SOUTHEAST MISSOURI...

CITY           SKY/WX    TMP DP  RH WIND       PRES   REMARKS
KENNETT        CLEAR    N/A N/A N/A MISG      30.04S HAZE
MALDEN         CLEAR     66  63  88 CALM      30.07R
WEST PLAINS    CLEAR     65  63  93 S7        30.06R
POPLAR BLUFF   CLEAR     63  63 100 CALM      30.05R FOG
CAPE GIRARDEAU PTCLDY    62  56  80 SE3       30.05S


...NORTHWEST ALABAMA...

CITY           SKY/WX    TMP DP  RH WIND       PRES   REMARKS
MUSCLE SHOALS  PTCLDY    60  58  92 SE3       30.09F


...MIDDLE TENNESSEE...

CITY           SKY/WX    TMP DP  RH WIND       PRES   REMARKS
NASHVILLE      CLEAR     60  57  89 CALM      30.12R
CLARKSVILLE    CLEAR     55  53  93 CALM      30.11R
COLUMBIA       PTCLDY    55  55 100 CALM      30.10R


...WESTERN KENTUCKY...

CITY           SKY/WX    TMP DP  RH WIND       PRES   REMARKS
PADUCAH        CLEAR     62  55  77 SE6       30.07R
FORT CAMPBELL  CLEAR     58  55  89 CALM      30.11R


...CENTRAL ARKANSAS...

CITY           SKY/WX    TMP DP  RH WIND       PRES   REMARKS
LITTLE ROCK    PTCLDY    69  68  96 CALM      30.03R


SKY/WX REPORTED AS FAIR MEANS FEW OR NO CLOUDS BELOW
12 THOUSAND FEET.




USA.gov is the U.S. government's official web portal to all federal, state and local government web resources and services.